Tracking 27428 objects as of 31-May-2023
HD Live streaming from Space Station
objects crossing your sky now

STARLINK-4577

Track STARLINK-4577 now!
10-day predictions
STARLINK-4577 is classified as:


NORAD ID: 53564
Int'l Code: 2022-101AP
Perigee: 546.4 km
Apogee: 547.4 km
Inclination: 53.2 °
Period: 95.4 minutes
Semi major axis: 6917 km
RCS: Unknown
Launch date: August 19, 2022
Source: United States (US)
Launch site: AIR FORCE EASTERN TEST RANGE (AFETR)
Your satellite tracking list
Your tracking list is empty




NASA's NSSDC Master Catalog

Two Line Element Set (TLE):
1 53564U 22101AP  23150.68269807 -.00001258  00000-0 -60959-4 0  9997
2 53564  53.2152 286.2440 0000674  96.8302 263.2767 15.08838409 43369
Source of the keplerian elements: AFSPC